sat.trackr.live / text

‹ back to catalog

GOSAT (IBUKI)

NORAD 33492 · 2009-002A

PAYLOAD ACTIVE UNKNOWN

§ Identity

Operator
Country
JPN
Launch date
2009-01-23
Launch site
TANSC
Launch vehicle
Mass (kg)
RCS (m²)
4.65

Purposes: earth_obs

External: N2YO · Heavens-Above · Gunter

§ Orbital elements

Epoch: 2026-09-09T21:19:56.345376Z

Period
98.12 min
Inclination
98.0953°
Eccentricity
0.0001605
Mean motion
14.67536157 rev/d
Perigee alt
667.8 km
Apogee alt
670.1 km
Semi-major
7,047.1 km
B*
7.9780e-5
RAAN
2.9347°
Arg perigee
100.8971°
Mean anomaly
259.2414°
Rev number
94,388

§ Raw data

GOSAT (IBUKI)1 33492U 09002A   26252.88884659  .00000404  00000+0  79780-4 0  99972 33492  98.0953   2.9347 0001605 100.8971 259.2414 14.67536157943884

JSON: /api/v1/satellites/33492 · /tle

For live sub-satellite position, see the globe view (requires WebGL).

§ Visibility from observer

Set your observer location to see the next 7 days of passes ≥ 10°. The values pass through the URL so the page stays shareable.

No JS? Fill the form by hand. The geolocation button needs JavaScript.

§ Radio — SatNOGS DB

ModeDescriptionDownlinkUplink
FM S-band telemetry 2.220 GHz

1 transmitter · refreshed weekly from db.satnogs.org